Preview of NWS' New Version of Forecast
This preview is not operational and should not be used for support decisions.

Regional Weather Roundup (RWR)

Issued by Binghamton, NY (BGM)

                            
000
ASUS41 KBGM 201010
RWRBGM

REGIONAL WEATHER ROUNDUP
NATIONAL WEATHER SERVICE BINGHAMTON NY
500 AM EST WED FEB 20 2019

Note: "fair" indicates few or no clouds below 12,000 feet with no
significant weather and/or obstructions to visibility.

* = Station(s) that does not report precipitation, such as rain, 
snow, etc, also no thunder or fog.

NYZ009-015>018-022>025-036-037-044>046-055>057-062-201100
...Central New York...
  
CITY           SKY/WX    TMP DP  RH WIND       PRES   REMARKS
Binghamton     FAIR      12   7  80 SE5       30.45F WCI   4          
Cortland       FAIR       9   5  85 CALM      30.50F                  
Dansville      FAIR      16   8  71 SE8       30.50F WCI   5          
Elmira         FAIR      18  10  71 E6        30.50F WCI  10          
Seneca Falls   SUNNY     18  14  86 S7        30.54F WCI   8          
Ithaca         FAIR       9   6  88 E6        30.50F WCI  -1          
Hamilton       CLEAR      3   0  85 CALM      30.52S                  
Hornell          N/A     12   9  85 CALM      30.49F                  
Monticello     FAIR      11   6  81 CALM      30.51F                  
Norwich        CLEAR      7   1  78 W3        30.53F                  
Penn Yan       FAIR      14  10  84 CALM      30.49F                  
Rome           FAIR       2   0  91 CALM      30.58S                  
Sidney         CLEAR      9   7  92 CALM      30.53F                  
Syracuse       MOCLDY    11   5  77 E6        30.56R WCI   1          
$$
 
PAZ038>040-043-044-047-048-072-201100
...Northeast Pennsylvania...
  
CITY           SKY/WX    TMP DP  RH WIND       PRES   REMARKS
Hazleton       FAIR      23   9  54 CALM      30.49F                  
Scranton       FAIR      21  11  65 E5        30.52S WCI  15          
$$
&&
KEY
WCI = Wind Chill Index
VSB = Visibility
HX  = Heat Index
$$